Location: Boda
(47.1872°N, 9.5454°E)
Time: 09:53:11
(UTC+00:00)

SL-16 R/B - Pass Details

Date: 14 May 2021
Orbit: 985 x 1007 km, 99.5° (Epoch: 16 June)

Event Time Altitude Azimuth Distance (km) Brightness Sun altitude
Exits shadow 02:45:20 11° 239° (WSW) 2,707 4.2 -9.4°
Maximum altitude 02:48:36 16° 272° (W) 2,375 4.1 -9.0°
Drops below altitude 10° 02:52:17 10° 309° (NW) 2,789 4.8 -8.5°
Sets 02:55:56 0° 330° (NNW) 3,741 5.7 -8.0°
